Location: Unspecified
(31.1663°N, 0.0000°E)
Time: 02:50:13
(UTC+00:00)

Tiangong - Visible Passes

Search period start: 04 April 2026 00:00
Search period end: 14 April 2026 00:00
Orbit: 380 x 386 km, 41.5° (Epoch: 28 March)

Date Brightness Start Highest point End Pass type
(mag) Time Alt. Az. Time Alt. Az. Time Alt. Az.
4 Apr 0.6 19:51:06 10° NW 19:52:42 13° N 19:53:50 11° NNE visible
5 Apr 0.5 18:50:03 10° NW 18:52:02 15° NNW 18:54:02 10° NNE visible
5 Apr 1.0 20:28:02 10° NNW 20:28:34 12° NNW 20:28:34 12° NNW visible
6 Apr 0.6 19:27:30 10° NNW 19:28:57 12° N 19:30:24 10° NNE visible
7 Apr 0.3 20:03:48 10° NNW 20:05:38 16° N 20:05:38 16° N visible
8 Apr 0.5 19:03:28 10° NNW 19:05:06 13° N 19:06:43 10° NE visible
8 Apr 1.1 20:39:38 10° NW 20:40:12 14° NW 20:40:12 14° NW visible
9 Apr -0.3 19:39:22 10° NW 19:41:50 21° NNE 19:42:34 19° NE visible
10 Apr -0.4 20:15:13 10° NW 20:17:06 31° NW 20:17:06 31° NW visible
11 Apr -0.9 19:14:49 10° NW 19:17:40 30° NNE 19:19:30 17° ENE visible
11 Apr 1.4 20:51:34 10° WNW 20:51:39 11° WNW 20:51:39 11° WNW visible
12 Apr -2.2 19:50:47 10° WNW 19:53:55 74° SSW 19:54:04 71° S visible
13 Apr -1.8 18:50:13 10° NW 18:53:18 53° NNE 18:56:22 10° ESE visible
13 Apr 0.7 20:27:45 10° W 20:28:41 14° WSW 20:28:41 14° WSW visible
